• în Republica Moldova
  • Lista ţărilor
  • Pe 7 zile
  • Temperatura apei
  • Hartă satelitară
  • Meteo pe hartă
  • Widget-uri
  • user-avatar
    Intrare

    Meteo pe oră la Kerns

    Astăzi, 12 Decembrie, Miercuri

    Timp Temperatura Precipitaţii Vânt Presiune Umiditate
    00:00 +27°C° 0 mm 2 m/s 756 mmHg 96%
    01:00 +27°C° 0 mm 2 m/s 756 mmHg 96%
    02:00 +27°C° 0 mm 2 m/s 756 mmHg 97%
    03:00 +27°C° 0 mm 2 m/s 756 mmHg 97%
    04:00 +27°C° 0 mm 2 m/s 755 mmHg 97%
    05:00 +27°C° 0.1 mm 2 m/s 755 mmHg 95%
    06:00 +28°C° 0.1 mm 2 m/s 756 mmHg 94%
    07:00 +28°C° 0.1 mm 2 m/s 756 mmHg 92%
    08:00 +30°C° 0.1 mm 2 m/s 756 mmHg 85%
    09:00 +31°C° 0.1 mm 2 m/s 756 mmHg 78%
    10:00 +34°C° 0 mm 2 m/s 757 mmHg 74%
    11:00 +34°C° 1.3 mm 2 m/s 756 mmHg 75%
    12:00 +34°C° 1.3 mm 2 m/s 756 mmHg 77%
    13:00 +34°C° 1.3 mm 2 m/s 755 mmHg 78%
    14:00 +32°C° 0.4 mm 2 m/s 755 mmHg 79%
    15:00 +32°C° 0.4 mm 2 m/s 755 mmHg 80%
    16:00 +31°C° 0 mm 2 m/s 755 mmHg 83%
    17:00 +31°C° 0.3 mm 1 m/s 755 mmHg 86%
    18:00 +30°C° 0.3 mm 1 m/s 755 mmHg 90%
    19:00 +29°C° 0.3 mm 1 m/s 755 mmHg 93%
    20:00 +27°C° 0.1 mm 0 m/s 755 mmHg 95%
    21:00 +26°C° 0.1 mm 0 m/s 756 mmHg 96%
    22:00 +26°C° 0.1 mm 0 m/s 756 mmHg 97%
    23:00 +26°C° 0 mm 0 m/s 755 mmHg 97%

    Mâine, 13 Decembrie, Joi

    Timp Temperatura Precipitaţii Vânt Presiune Umiditate
    00:00 +28°C° 0 mm 1 m/s 755 mmHg 98%
    01:00 +28°C° 0 mm 1 m/s 755 mmHg 98%
    02:00 +27°C° 0 mm 1 m/s 755 mmHg 98%
    03:00 +27°C° 0 mm 1 m/s 755 mmHg 98%
    04:00 +27°C° 0 mm 1 m/s 755 mmHg 98%
    05:00 +28°C° 0 mm 1 m/s 755 mmHg 95%
    06:00 +26°C° 0 mm 0 m/s 755 mmHg 93%
    07:00 +26°C° 0 mm 0 m/s 756 mmHg 91%
    08:00 +28°C° 0 mm 0 m/s 756 mmHg 83%
    09:00 +32°C° 0 mm 1 m/s 756 mmHg 75%
    10:00 +34°C° 0 mm 1 m/s 756 mmHg 67%
    11:00 +35°C° 0.7 mm 2 m/s 755 mmHg 70%
    12:00 +35°C° 0.7 mm 2 m/s 755 mmHg 73%
    13:00 +35°C° 0.7 mm 3 m/s 755 mmHg 76%
    14:00 +34°C° 1.5 mm 3 m/s 754 mmHg 79%
    15:00 +33°C° 1.5 mm 3 m/s 754 mmHg 82%
    16:00 +31°C° 1.5 mm 3 m/s 753 mmHg 85%
    17:00 +31°C° 0.2 mm 3 m/s 753 mmHg 88%
    18:00 +30°C° 0.2 mm 2 m/s 754 mmHg 91%
    19:00 +29°C° 0.2 mm 2 m/s 754 mmHg 94%
    20:00 +29°C° 0 mm 3 m/s 754 mmHg 95%
    21:00 +28°C° 0 mm 3 m/s 754 mmHg 95%
    22:00 +28°C° 0 mm 3 m/s 755 mmHg 95%
    23:00 +28°C° 0 mm 3 m/s 754 mmHg 95%

    Poimâine, 14 Decembrie, Vineri

    Timp Temperatura Precipitaţii Vânt Presiune Umiditate
    00:00 +28°C° 0 mm 3 m/s 753 mmHg 95%
    01:00 +28°C° 0 mm 3 m/s 753 mmHg 95%
    02:00 +28°C° 0 mm 3 m/s 752 mmHg 96%
    03:00 +28°C° 0 mm 3 m/s 752 mmHg 96%
    04:00 +28°C° 0 mm 3 m/s 752 mmHg 96%
    05:00 +28°C° 0 mm 2 m/s 752 mmHg 95%
    06:00 +28°C° 0 mm 2 m/s 753 mmHg 93%
    07:00 +29°C° 0 mm 2 m/s 753 mmHg 92%
    08:00 +30°C° 0.2 mm 3 m/s 753 mmHg 87%
    09:00 +31°C° 0.2 mm 3 m/s 753 mmHg 82%
    10:00 +33°C° 0.2 mm 4 m/s 753 mmHg 77%
    11:00 +34°C° 0.6 mm 4 m/s 753 mmHg 78%
    12:00 +34°C° 0.6 mm 5 m/s 752 mmHg 78%
    13:00 +34°C° 0.6 mm 5 m/s 752 mmHg 79%
    14:00 +33°C° 0.4 mm 5 m/s 752 mmHg 82%
    15:00 +32°C° 0.4 mm 5 m/s 751 mmHg 86%
    16:00 +30°C° 0.4 mm 5 m/s 751 mmHg 90%
    17:00 +30°C° 0.8 mm 5 m/s 751 mmHg 92%
    18:00 +29°C° 0.8 mm 5 m/s 752 mmHg 94%
    19:00 +29°C° 0.8 mm 5 m/s 752 mmHg 95%
    20:00 +29°C° 1.4 mm 5 m/s 752 mmHg 96%
    21:00 +28°C° 1.4 mm 5 m/s 752 mmHg 96%
    22:00 +28°C° 1.4 mm 6 m/s 753 mmHg 96%
    23:00 +28°C° 0.8 mm 6 m/s 752 mmHg 96%

    15 Decembrie, Sâmbătă

    Timp Temperatura Precipitaţii Vânt Presiune Umiditate
    00:00 +28°C° 0.8 mm 6 m/s 751 mmHg 96%
    01:00 +28°C° 0.8 mm 7 m/s 751 mmHg 95%
    02:00 +28°C° 0.7 mm 7 m/s 750 mmHg 95%
    03:00 +28°C° 0.7 mm 7 m/s 750 mmHg 95%
    04:00 +28°C° 0.7 mm 7 m/s 749 mmHg 95%
    05:00 +28°C° 0.5 mm 7 m/s 750 mmHg 94%
    06:00 +29°C° 0.5 mm 7 m/s 750 mmHg 93%
    07:00 +29°C° 0.5 mm 7 m/s 751 mmHg 92%
    08:00 +29°C° 0.2 mm 7 m/s 751 mmHg 89%
    09:00 +30°C° 0.2 mm 7 m/s 751 mmHg 86%
    10:00 +30°C° 0.2 mm 7 m/s 751 mmHg 83%
    11:00 +32°C° 0 mm 7 m/s 751 mmHg 80%
    12:00 +32°C° 0 mm 6 m/s 751 mmHg 76%
    13:00 +33°C° 0 mm 6 m/s 750 mmHg 73%
    14:00 +33°C° 0 mm 6 m/s 750 mmHg 71%
    15:00 +34°C° 0 mm 5 m/s 750 mmHg 69%
    16:00 +34°C° 0 mm 5 m/s 749 mmHg 66%
    17:00 +33°C° 0.1 mm 5 m/s 750 mmHg 69%
    18:00 +32°C° 0.1 mm 4 m/s 751 mmHg 72%
    19:00 +30°C° 0.1 mm 4 m/s 751 mmHg 75%
    20:00 +29°C° 0 mm 4 m/s 752 mmHg 73%
    21:00 +29°C° 0 mm 3 m/s 752 mmHg 70%
    22:00 +28°C° 0 mm 3 m/s 753 mmHg 68%
    23:00 +27°C° 0 mm 3 m/s 753 mmHg 67%

    16 Decembrie, Duminică

    Timp Temperatura Precipitaţii Vânt Presiune Umiditate
    00:00 +27°C° 0 mm 3 m/s 752 mmHg 66%
    01:00 +26°C° 0 mm 3 m/s 752 mmHg 65%
    02:00 +26°C° 0 mm 3 m/s 752 mmHg 64%
    03:00 +25°C° 0 mm 3 m/s 752 mmHg 63%
    04:00 +25°C° 0 mm 3 m/s 752 mmHg 62%
    05:00 +25°C° 0 mm 3 m/s 753 mmHg 62%
    06:00 +25°C° 0 mm 3 m/s 753 mmHg 63%
    07:00 +25°C° 0 mm 3 m/s 754 mmHg 63%
    08:00 +28°C° 0 mm 3 m/s 754 mmHg 54%
    09:00 +31°C° 0 mm 3 m/s 755 mmHg 46%
    10:00 +35°C° 0 mm 3 m/s 755 mmHg 37%
    11:00 +36°C° 0 mm 3 m/s 754 mmHg 33%
    12:00 +37°C° 0 mm 2 m/s 754 mmHg 29%
    13:00 +38°C° 0 mm 2 m/s 753 mmHg 25%
    14:00 +38°C° 0 mm 3 m/s 753 mmHg 26%
    15:00 +38°C° 0 mm 3 m/s 752 mmHg 28%
    16:00 +38°C° 0 mm 3 m/s 752 mmHg 29%
    17:00 +35°C° 0 mm 3 m/s 752 mmHg 36%
    18:00 +33°C° 0 mm 3 m/s 752 mmHg 44%
    19:00 +29°C° 0 mm 2 m/s 753 mmHg 52%
    20:00 +28°C° 0 mm 2 m/s 753 mmHg 51%
    21:00 +27°C° 0 mm 2 m/s 754 mmHg 51%
    22:00 +26°C° 0 mm 3 m/s 754 mmHg 50%
    23:00 +26°C° 0 mm 2 m/s 754 mmHg 48%

    17 Decembrie, Luni

    Timp Temperatura Precipitaţii Vânt Presiune Umiditate
    00:00 +25°C° 0 mm 2 m/s 754 mmHg 47%
    01:00 +25°C° 0 mm 2 m/s 754 mmHg 45%
    02:00 +25°C° 0 mm 2 m/s 754 mmHg 45%
    03:00 +25°C° 0 mm 2 m/s 753 mmHg 45%
    04:00 +24°C° 0 mm 2 m/s 753 mmHg 44%
    05:00 +25°C° 0 mm 2 m/s 754 mmHg 48%
    06:00 +26°C° 0 mm 2 m/s 754 mmHg 51%
    07:00 +26°C° 0 mm 2 m/s 755 mmHg 54%
    08:00 +30°C° 0 mm 2 m/s 755 mmHg 46%
    09:00 +34°C° 0 mm 1 m/s 755 mmHg 37%
    10:00 +37°C° 0 mm 1 m/s 755 mmHg 29%
    11:00 +39°C° 0 mm 1 m/s 754 mmHg 28%
    12:00 +40°C° 0 mm 2 m/s 754 mmHg 26%
    13:00 +41°C° 0 mm 2 m/s 753 mmHg 25%
    14:00 +40°C° 0 mm 2 m/s 753 mmHg 27%
    15:00 +39°C° 0 mm 3 m/s 753 mmHg 29%
    16:00 +38°C° 0 mm 3 m/s 752 mmHg 31%
    17:00 +35°C° 0 mm 2 m/s 753 mmHg 41%
    18:00 +32°C° 0 mm 2 m/s 753 mmHg 51%
    19:00 +29°C° 0 mm 1 m/s 754 mmHg 60%
    20:00 +28°C° 0 mm 1 m/s 754 mmHg 57%
    21:00 +28°C° 0 mm 1 m/s 755 mmHg 54%
    22:00 +27°C° 0 mm 1 m/s 755 mmHg 50%
    23:00 +27°C° 0 mm 2 m/s 755 mmHg 48%
    Arată mai mult